{"data":{"norad_id":43909,"intl_designator":"2018-112A","name":"YUNHAI-2 01A","alt_names":[],"object_type":"PAYLOAD","status":"ACTIVE","operator":null,"country":"PRC","launch_date":"2018-12-29","launch_site_code":"JSC","launch_vehicle":null,"mission":null,"orbit_class":"UNKNOWN","rcs_meters":null,"size_class":null,"mass_kg":null,"dimensions":null,"purposes":[],"wikipedia_slug":null,"has_3d_model":false,"image_url":null,"decayed_at":null,"tle_current":{"epoch":"2026-05-25T05:39:47.568672Z","epoch_age_seconds":51141,"freshness":"FRESH","line1":"1 43909U 18112A   26145.23596723 -.00000017  00000+0  56623-4 0  9997","line2":"2 43909  50.0076 141.6330 0000272 250.6172 109.4714 14.29009335387805","mean_motion":14.29009335,"eccentricity":2.72e-5,"inclination_deg":50.0076,"raan_deg":141.633,"arg_perigee_deg":250.6172,"mean_anomaly_deg":109.4714,"bstar":5.6623e-5,"rev_number":38780,"period_min":100.76911079101,"perigee_km":794.84902101947,"apogee_km":795.23924207303,"semimajor_km":7173.1811315462,"source":"CELESTRAK","updated_at":"2026-05-25T13:37:55.927432Z"}}}